Mankato, MN

12:26 PM CST on November 21, 2019 (GMT -0600)
Mankato Regional

Weather History for KMKT - September, 2019

Change the Weather History Date:

Saturday, September 28, 2019

  Actual Average Record
Temperature  
Mean Temperature 54 °F -  
Max Temperature 62 °F 63 °F 80 °F (1998)
Min Temperature 46 °F 43 °F 41 °F (2003)
Degree Days  
Heating Degree Days 11    
Growing Degree Days 4 (Base 50)    
Moisture  
Dew Point 45 °F    
Average Humidity 74    
Maximum Humidity 100    
Minimum Humidity 46    
Precipitation  
Precipitation 0.00 in - - ()
Sea Level Pressure  
Sea Level Pressure 30.16 in    
Wind  
Wind Speed 8 mph ()    
Max Wind Speed 14 mph    
Max Gust Speed 22 mph    
Visibility 10.0 miles    
Events Rain    
Averages and records for this station are not official NWS values.
T = Trace of Precipitation, MM = Missing Value Source: Averaged Metar Reports

Daily Weather History Graph

Daily Weather History Graph

Search for Another Location

Airport or City:

Astronomy

Sep. 28, 2019 Rise Set
Actual Time 7:09 AM CDT 7:02 PM CDT
Civil Twilight 6:40 AM CDT 7:31 PM CDT
Nautical Twilight 6:07 AM CDT 8:04 PM CDT
Astronomical Twilight 5:32 AM CDT 8:38 PM CDT
Moon 6:43 AM CDT (9/28) 7:29 PM CDT (9/28)
Length of Visible Light 12h 50m
Length of Day
11h 52m
Waning Crescent, 0% of the Moon is Illuminated
Sep 28
Waning Crescent
Sep 28
New
Oct 5
First Quarter
Oct 13
Full
Oct 21
Last Quarter

Hourly Weather History & Observations

Time (CDT) Temp. Windchill Dew Point Humidity Pressure Visibility Wind Dir Wind Speed Gust Speed Precip Events Conditions
12:56 AM 48.9 °F - 46.9 °F 93% 30.00 in 10.0 mi NNW 8.1 mph - N/A   Clear
1:56 AM 48.9 °F - 46.9 °F 93% 30.04 in 10.0 mi NNW 10.4 mph - N/A   Mostly Cloudy
2:56 AM 50.0 °F - 48.0 °F 93% 30.05 in 10.0 mi NNE 6.9 mph - N/A   Overcast
3:56 AM 48.9 °F - 48.0 °F 97% 30.07 in 10.0 mi North 6.9 mph - N/A   Clear
4:56 AM 46.9 °F - 46.9 °F 100% 30.08 in 10.0 mi NNE 4.6 mph - N/A   Clear
5:56 AM 46.9 °F - 46.0 °F 97% 30.10 in 10.0 mi North 6.9 mph - N/A   Clear
6:56 AM 46.0 °F 42.5 °F 45.0 °F 96% 30.14 in 10.0 mi North 6.9 mph - N/A   Clear
7:56 AM 46.0 °F 42.5 °F 45.0 °F 96% 30.18 in 10.0 mi North 6.9 mph - N/A   Clear
8:56 AM 48.0 °F - 46.0 °F 93% 30.19 in 10.0 mi NNE 9.2 mph - N/A   Clear
9:56 AM 52.0 °F - 46.9 °F 83% 30.22 in 10.0 mi NE 9.2 mph - N/A   Clear
10:56 AM 55.0 °F - 46.9 °F 74% 30.21 in 10.0 mi NE 11.5 mph - N/A   Clear
11:33 AM 55.4 °F - 46.4 °F 72% 30.21 in 10.0 mi NE 10.4 mph - N/A   Mostly Cloudy
11:56 AM 57.0 °F - 46.9 °F 69% 30.22 in 10.0 mi NNE 11.5 mph - N/A   Mostly Cloudy
12:56 PM 59.0 °F - 46.0 °F 62% 30.22 in 10.0 mi NE 11.5 mph 17.3 mph N/A   Overcast
1:18 PM 59.0 °F - 44.6 °F 59% 30.20 in 10.0 mi NE 9.2 mph - N/A   Scattered Clouds
1:56 PM 60.1 °F - 45.0 °F 57% 30.21 in 10.0 mi ENE 12.7 mph - N/A   Partly Cloudy
2:56 PM 62.1 °F - 45.0 °F 53% 30.20 in 10.0 mi East 9.2 mph - N/A   Clear
3:56 PM 62.1 °F - 43.0 °F 50% 30.18 in 10.0 mi ENE 13.8 mph 21.9 mph N/A   Clear
4:56 PM 62.1 °F - 41.0 °F 46% 30.18 in 10.0 mi ENE 12.7 mph - N/A   Clear
5:56 PM 60.1 °F - 43.0 °F 53% 30.18 in 10.0 mi ENE 10.4 mph - N/A   Clear
6:56 PM 59.0 °F - 44.1 °F 58% 30.20 in 10.0 mi ENE 9.2 mph - N/A   Partly Cloudy
7:56 PM 57.0 °F - 44.1 °F 62% 30.19 in 10.0 mi East 8.1 mph - N/A   Clear
8:56 PM 55.9 °F - 44.1 °F 64% 30.19 in 10.0 mi East 12.7 mph - N/A   Clear
9:56 PM 55.9 °F - 44.1 °F 64% 30.18 in 10.0 mi East 12.7 mph - N/A   Clear
10:56 PM 57.0 °F - 45.0 °F 64% 30.17 in 10.0 mi East 12.7 mph - N/A   Overcast
11:56 PM 57.0 °F - 46.9 °F 69% 30.18 in 10.0 mi East 12.7 mph - 0.00 in Rain Light Rain